TimeCDT,TemperatureF,Dew PointF,Humidity,Sea Level PressureIn,VisibilityMPH,Wind Direction,Wind SpeedMPH,Gust SpeedMPH,PrecipitationIn,Events,Conditions,WindDirDegrees,DateUTC
12:13 AM,59.0,55.4,88,29.74,10.0,NW,5.8,-,N/A,,Scattered Clouds,320,2013-09-28 05:13:00
12:33 AM,57.2,55.4,94,29.75,10.0,WNW,10.4,-,N/A,,Clear,290,2013-09-28 05:33:00
12:53 AM,57.2,55.4,94,29.73,10.0,North,5.8,-,N/A,,Clear,350,2013-09-28 05:53:00
1:13 AM,57.2,55.4,94,29.72,10.0,North,8.1,-,N/A,,Clear,10,2013-09-28 06:13:00
1:34 AM,59.0,55.4,88,29.72,10.0,NNE,5.8,-,N/A,,Scattered Clouds,30,2013-09-28 06:34:00
1:53 AM,57.2,55.4,94,29.71,10.0,NE,6.9,-,N/A,,Scattered Clouds,50,2013-09-28 06:53:00
2:13 AM,57.2,55.4,94,29.70,10.0,ENE,5.8,-,N/A,,Scattered Clouds,60,2013-09-28 07:13:00
2:33 AM,57.2,55.4,94,29.70,10.0,ENE,5.8,-,N/A,,Scattered Clouds,70,2013-09-28 07:33:00
2:53 AM,59.0,57.2,94,29.68,10.0,ENE,5.8,-,N/A,,Mostly Cloudy,60,2013-09-28 07:53:00
3:13 AM,59.0,57.2,94,29.67,10.0,East,6.9,-,N/A,,Mostly Cloudy,80,2013-09-28 08:13:00
3:33 AM,60.8,57.2,88,29.65,10.0,ESE,8.1,-,N/A,,Mostly Cloudy,110,2013-09-28 08:33:00
3:54 AM,64.4,59.0,83,29.64,10.0,SE,10.4,-,N/A,,Scattered Clouds,140,2013-09-28 08:54:00
4:13 AM,66.2,60.8,83,29.66,10.0,WSW,17.3,23.0,N/A,,Mostly Cloudy,240,2013-09-28 09:13:00
4:33 AM,60.8,55.4,82,29.66,10.0,West,12.7,-,N/A,,Mostly Cloudy,280,2013-09-28 09:33:00
4:53 AM,55.4,53.6,94,29.64,10.0,WNW,8.1,-,N/A,,Scattered Clouds,290,2013-09-28 09:53:00
5:13 AM,55.4,53.6,94,29.65,7.0,NW,4.6,-,N/A,,Scattered Clouds,320,2013-09-28 10:13:00
5:33 AM,55.4,53.6,94,29.64,5.0,NW,3.5,-,N/A,Rain,Rain,310,2013-09-28 10:33:00
5:53 AM,55.4,53.6,94,29.63,7.0,Calm,Calm,-,0.04,Rain,Light Rain,0,2013-09-28 10:53:00
6:13 AM,55.4,53.6,94,29.61,5.0,East,5.8,-,N/A,,Scattered Clouds,90,2013-09-28 11:13:00
6:34 AM,55.4,55.4,100,29.62,5.0,Calm,Calm,-,0.02,Rain,Rain,0,2013-09-28 11:34:00
6:53 AM,55.4,55.4,100,29.63,5.0,WSW,10.4,-,0.05,Rain,Light Rain,240,2013-09-28 11:53:00
7:13 AM,55.4,55.4,100,29.63,5.0,SW,8.1,-,0.03,Rain,Rain,230,2013-09-28 12:13:00
7:33 AM,53.6,53.6,100,29.63,7.0,WSW,9.2,-,0.06,Rain,Rain,240,2013-09-28 12:33:00
7:53 AM,53.6,51.8,94,29.63,10.0,WSW,10.4,-,0.08,Rain,Light Rain,250,2013-09-28 12:53:00
8:14 AM,51.8,51.8,100,29.63,10.0,West,11.5,-,0.03,Rain,Light Rain,260,2013-09-28 13:14:00
8:33 AM,51.8,51.8,100,29.65,10.0,West,13.8,-,0.06,Rain,Rain,270,2013-09-28 13:33:00
8:53 AM,51.8,51.8,100,29.65,10.0,West,13.8,19.6,0.10,Rain,Light Rain,270,2013-09-28 13:53:00
9:13 AM,51.8,51.8,100,29.64,10.0,WNW,13.8,-,0.02,Rain,Light Rain,290,2013-09-28 14:13:00
9:33 AM,51.8,50.0,94,29.66,10.0,West,15.0,-,0.02,Rain,Light Rain,280,2013-09-28 14:33:00
9:53 AM,51.8,50.0,94,29.67,7.0,West,16.1,24.2,0.03,,Drizzle,270,2013-09-28 14:53:00
10:13 AM,51.8,50.0,94,29.69,10.0,West,15.0,24.2,0.01,Rain,Light Rain,270,2013-09-28 15:13:00
10:33 AM,51.8,50.0,94,29.70,7.0,West,19.6,23.0,0.02,Rain,Light Rain,270,2013-09-28 15:33:00
10:53 AM,51.8,50.0,94,29.71,7.0,West,17.3,24.2,0.02,Rain,Light Rain,270,2013-09-28 15:53:00
11:13 AM,53.6,51.8,94,29.71,10.0,West,23.0,32.2,N/A,,Mostly Cloudy,270,2013-09-28 16:13:00
11:33 AM,53.6,51.8,94,29.72,10.0,West,19.6,25.3,N/A,,Mostly Cloudy,270,2013-09-28 16:33:00
11:53 AM,53.6,51.8,94,29.72,10.0,West,17.3,28.8,N/A,,Mostly Cloudy,270,2013-09-28 16:53:00
12:13 PM,53.6,51.8,94,29.73,10.0,West,13.8,27.6,N/A,,Mostly Cloudy,260,2013-09-28 17:13:00
12:33 PM,53.6,50.0,88,29.74,10.0,West,19.6,25.3,N/A,,Overcast,270,2013-09-28 17:33:00
12:53 PM,53.6,48.2,82,29.75,10.0,West,17.3,25.3,N/A,,Overcast,260,2013-09-28 17:53:00
1:13 PM,53.6,50.0,88,29.76,10.0,West,19.6,28.8,N/A,,Overcast,270,2013-09-28 18:13:00
1:33 PM,55.4,48.2,77,29.76,10.0,West,23.0,27.6,N/A,,Mostly Cloudy,280,2013-09-28 18:33:00
1:54 PM,55.4,48.2,77,29.77,10.0,West,15.0,26.5,N/A,,Overcast,260,2013-09-28 18:54:00
2:13 PM,53.6,48.2,82,29.77,10.0,West,15.0,26.5,N/A,,Overcast,270,2013-09-28 19:13:00
2:33 PM,53.6,48.2,82,29.78,10.0,West,17.3,26.5,N/A,,Overcast,280,2013-09-28 19:33:00
2:53 PM,53.6,48.2,82,29.79,10.0,West,17.3,24.2,N/A,,Overcast,270,2013-09-28 19:53:00
3:13 PM,55.4,48.2,77,29.79,10.0,West,16.1,21.9,N/A,,Scattered Clouds,270,2013-09-28 20:13:00
3:33 PM,55.4,44.6,67,29.80,10.0,West,20.7,28.8,N/A,,Mostly Cloudy,270,2013-09-28 20:33:00
3:53 PM,55.4,44.6,67,29.81,10.0,West,18.4,27.6,N/A,,Mostly Cloudy,270,2013-09-28 20:53:00
4:14 PM,57.2,44.6,63,29.81,10.0,West,15.0,25.3,N/A,,Mostly Cloudy,280,2013-09-28 21:14:00
4:33 PM,55.4,42.8,63,29.82,10.0,West,17.3,29.9,N/A,,Scattered Clouds,280,2013-09-28 21:33:00
4:53 PM,57.2,44.6,63,29.82,10.0,WNW,17.3,23.0,N/A,,Scattered Clouds,290,2013-09-28 21:53:00
5:13 PM,57.2,44.6,63,29.83,10.0,WNW,17.3,20.7,N/A,,Clear,290,2013-09-28 22:13:00
5:33 PM,57.2,42.8,59,29.84,10.0,WNW,15.0,23.0,N/A,,Clear,290,2013-09-28 22:33:00
5:54 PM,57.2,42.8,59,29.86,10.0,WNW,15.0,20.7,N/A,,Clear,290,2013-09-28 22:54:00
6:13 PM,57.2,42.8,59,29.87,10.0,WNW,12.7,16.1,N/A,,Clear,290,2013-09-28 23:13:00
6:33 PM,55.4,42.8,63,29.87,10.0,West,6.9,-,N/A,,Clear,270,2013-09-28 23:33:00
6:53 PM,53.6,42.8,67,29.88,10.0,West,3.5,-,N/A,,Clear,260,2013-09-28 23:53:00
7:13 PM,53.6,44.6,72,29.88,10.0,Calm,Calm,-,N/A,,Clear,0,2013-09-29 00:13:00
7:33 PM,51.8,44.6,76,29.88,10.0,South,4.6,-,N/A,,Clear,180,2013-09-29 00:33:00
7:53 PM,51.8,44.6,76,29.89,10.0,SSE,4.6,-,N/A,,Clear,160,2013-09-29 00:53:00
8:13 PM,50.0,44.6,82,29.89,10.0,SSE,4.6,-,N/A,,Clear,150,2013-09-29 01:13:00
8:33 PM,48.2,44.6,87,29.89,10.0,Calm,Calm,-,N/A,,Clear,0,2013-09-29 01:33:00
8:53 PM,48.2,44.6,87,29.89,10.0,SSE,3.5,-,N/A,,Clear,150,2013-09-29 01:53:00
9:13 PM,48.2,44.6,87,29.89,10.0,SSE,4.6,-,N/A,,Clear,160,2013-09-29 02:13:00
9:33 PM,46.4,44.6,93,29.89,10.0,South,4.6,-,N/A,,Clear,170,2013-09-29 02:33:00
9:53 PM,44.6,42.8,93,29.89,10.0,South,6.9,-,N/A,,Clear,170,2013-09-29 02:53:00
10:13 PM,46.4,42.8,87,29.89,10.0,South,3.5,-,N/A,,Clear,180,2013-09-29 03:13:00
10:33 PM,46.4,42.8,87,29.89,10.0,SSW,3.5,-,N/A,,Scattered Clouds,200,2013-09-29 03:33:00
10:53 PM,46.4,42.8,87,29.90,10.0,SSW,4.6,-,N/A,,Clear,210,2013-09-29 03:53:00
11:13 PM,46.4,42.8,87,29.90,10.0,SSW,3.5,-,N/A,,Clear,210,2013-09-29 04:13:00
11:34 PM,46.4,42.8,87,29.90,10.0,SSW,5.8,-,N/A,,Clear,200,2013-09-29 04:34:00
11:53 PM,46.4,42.8,87,29.90,10.0,SSW,4.6,-,N/A,,Clear,200,2013-09-29 04:53:00